Location: Seattle
(47.6064°N, 122.3308°W)
Time: 04:43:14
(UTC-08:00)

S-56A Canister/Altair - Pass Details

Date: 03 December 2020
Orbit: 633 x 2499 km, 38.9° (Epoch: 23 January)

Event Time Altitude Azimuth Distance (km) Brightness Sun altitude
Rises 20:59:05 0° 264° (W) 5,559 12.5 -46.1°
Reaches altitude 10° 21:03:17 10° 259° (W) 4,289 11.7 -46.7°
Enters shadow 21:09:29 32° 241° (WSW) 2,496 10.2 -47.7°
Maximum altitude 21:13:30 47° 191° (SSW) 1,790 - -48.4°
Drops below altitude 10° 21:20:21 10° 120° (ESE) 2,904 - -49.4°
Sets 21:22:42 0° 114° (ESE) 3,659 - -49.8°
